Ostend, Belgium

2:06 AM CET on March 24, 2017 (GMT +0100)
Ostend

Weather History for EBOS - April, 2014

Change the Weather History Date:

Monday, April 7, 2014

  Actual Average Record
Temperature  
Mean Temperature 60 °F -  
Max Temperature 68 °F 54 °F 68 °F (2014)
Min Temperature 53 °F 42 °F 23 °F (2013)
Degree Days  
Heating Degree Days 4    
Growing Degree Days 10 (Base 50)    
Moisture  
Dew Point 53 °F    
Average Humidity 82    
Maximum Humidity 94    
Minimum Humidity 51    
Precipitation  
Precipitation 0.75 in - - ()
Sea Level Pressure  
Sea Level Pressure 29.89 in    
Wind  
Wind Speed 8 mph ()    
Max Wind Speed 23 mph    
Max Gust Speed 29 mph    
Visibility 8.6 miles    
Events Rain , Thunderstorm    
Averages and records for this station are not official NWS values.
T = Trace of Precipitation, MM = Missing Value Source: Averaged Metar Reports

Daily Weather History Graph

Daily Weather History Graph

Search for Another Location

Airport or City:

Trip Planner

Search our weather history database for the weather conditions in past years. The results will help you decide how hot, cold, wet, or windy it might be!

Date:

Astronomy

Apr. 07, 2014 Rise Set
Actual Time 7:11 AM CEST 8:31 PM CEST
Civil Twilight 6:37 AM CEST 9:05 PM CEST
Nautical Twilight 5:55 AM CEST 9:47 PM CEST
Astronomical Twilight 5:10 AM CEST 10:32 PM CEST
Moon 12:34 PM CEST (4/7) 3:17 AM CEST (4/7)
Length of Visible Light 14h 28m
Length of Day
13h 20m
Waxing Crescent, 51% of the Moon is Illuminated
Apr 7
Waxing Crescent
Apr 15
Full
Apr 22
Last Quarter
Apr 29
New
May 7
First Quarter

Hourly Weather History & Observations

Time (CEST) Temp. Dew Point Humidity Pressure Visibility Wind Dir Wind Speed Gust Speed Precip Events Conditions
12:00 AM 56 °F 51 °F 80% 30.03 in 19 mi SSW 6.7 mph - -   Scattered Clouds
12:20 AM 55.4 °F 51.8 °F 88% 30.01 in 6.2 mi SSW 8.1 mph - N/A   Partly Cloudy
12:50 AM 57.2 °F 51.8 °F 82% 30.01 in 6.2 mi SSW 9.2 mph - N/A   Partly Cloudy
1:00 AM 56 °F 52 °F 81% 30.02 in 19 mi SSW 8.9 mph - -   Scattered Clouds
1:20 AM 55.4 °F 51.8 °F 88% 30.01 in 6.2 mi SSW 9.2 mph - N/A   Partly Cloudy
1:50 AM 55.4 °F 51.8 °F 88% 30.01 in 6.2 mi SSW 6.9 mph - N/A   Partly Cloudy
2:00 AM 55 °F 52 °F 84% 30.02 in 19 mi SSW 6.7 mph - -   Scattered Clouds
2:20 AM 55.4 °F 51.8 °F 88% 30.01 in 6.2 mi South 6.9 mph - N/A   Partly Cloudy
2:50 AM 55.4 °F 51.8 °F 88% 30.01 in 6.2 mi South 6.9 mph - N/A   Partly Cloudy
3:00 AM 55 °F 52 °F 86% 30.01 in 19 mi South 6.7 mph - -   Scattered Clouds
3:20 AM 55.4 °F 51.8 °F 88% 30.01 in 6.2 mi SSW 6.9 mph - N/A   Partly Cloudy
3:50 AM 55.4 °F 51.8 °F 88% 30.01 in - South 6.9 mph - N/A   Clear
4:00 AM 55 °F 52 °F 86% 30.01 in 9 mi South 6.7 mph - -   Partly Cloudy
4:20 AM 55.4 °F 51.8 °F 88% 29.98 in - South 8.1 mph - N/A   Clear
4:50 AM 55.4 °F 51.8 °F 88% 29.98 in - South 5.8 mph - N/A   Clear
5:00 AM 55 °F 52 °F 84% 29.99 in 9 mi South 6.7 mph - -   Partly Cloudy
5:20 AM 55.4 °F 51.8 °F 88% 29.98 in - South 8.1 mph - N/A   Clear
5:50 AM 55.4 °F 51.8 °F 88% 29.98 in - South 6.9 mph - N/A   Clear
6:00 AM 55 °F 52 °F 84% 29.99 in 9 mi South 6.7 mph - -   Scattered Clouds
6:20 AM 55.4 °F 51.8 °F 88% 29.98 in - South 8.1 mph - N/A   Clear
6:50 AM 55.4 °F 51.8 °F 88% 29.98 in - South 6.9 mph - N/A   Clear
7:00 AM 55 °F 52 °F 84% 29.99 in 11 mi South 6.7 mph - -   Partly Cloudy
7:20 AM 55.4 °F 51.8 °F 88% 29.98 in - South 5.8 mph - N/A   Clear
7:50 AM 55.4 °F 51.8 °F 88% 29.98 in - South 5.8 mph - N/A   Clear
8:00 AM 56 °F 52 °F 83% 29.99 in 11 mi South 6.7 mph - -   Mostly Cloudy
8:20 AM 55.4 °F 51.8 °F 88% 29.98 in 6.2 mi South 5.8 mph - N/A   Partly Cloudy
8:50 AM 55.4 °F 51.8 °F 88% 29.95 in 6.2 mi South 8.1 mph - N/A   Partly Cloudy
9:00 AM 56 °F 52 °F 83% 29.97 in 11 mi South 8.9 mph - -   Scattered Clouds
9:20 AM 57.2 °F 53.6 °F 88% 29.95 in 6.2 mi South 8.1 mph - N/A   Partly Cloudy
9:50 AM 59.0 °F 53.6 °F 82% 29.95 in 6.2 mi South 9.2 mph - N/A   Partly Cloudy
10:00 AM 58 °F 53 °F 78% 29.96 in 11 mi South 8.9 mph - -   Partly Cloudy
10:20 AM 59.0 °F 53.6 °F 82% 29.95 in 6.2 mi South 9.2 mph - N/A   Scattered Clouds
10:50 AM 60.8 °F 53.6 °F 77% 29.95 in 6.2 mi SSW 10.4 mph - N/A   Mostly Cloudy
11:00 AM 60 °F 54 °F 74% 29.96 in 16 mi SSW 8.9 mph - -   Mostly Cloudy
11:20 AM 60.8 °F 53.6 °F 77% 29.95 in 6.2 mi South 10.4 mph - N/A Rain Light Rain
11:50 AM 60.8 °F 55.4 °F 82% 29.92 in 6.2 mi South 9.2 mph - N/A   Partly Cloudy
12:00 PM 61 °F 55 °F 73% 29.94 in 12 mi South 8.9 mph - - Rain Light Rain
12:20 PM 60.8 °F 55.4 °F 82% 29.92 in 6.2 mi South 10.4 mph - N/A   Partly Cloudy
12:50 PM 64.4 °F 55.4 °F 73% 29.89 in 6.2 mi South 15.0 mph - N/A   Partly Cloudy
1:00 PM 65 °F 55 °F 61% 29.91 in 12 mi South 13.4 mph - -   Scattered Clouds
1:20 PM 66.2 °F 53.6 °F 64% 29.89 in 6.2 mi South 16.1 mph - N/A   Partly Cloudy
1:50 PM 66.2 °F 53.6 °F 64% 29.86 in 6.2 mi South 17.3 mph 28.8 mph N/A   Scattered Clouds
2:00 PM 67 °F 53 °F 52% 29.88 in 16 mi South 17.9 mph - -   Partly Cloudy
2:20 PM 68.0 °F 53.6 °F 60% 29.86 in 6.2 mi South 15.0 mph - N/A   Scattered Clouds
2:50 PM 68.0 °F 53.6 °F 60% 29.83 in 6.2 mi South 13.8 mph - N/A   Scattered Clouds
3:00 PM 67 °F 53 °F 51% 29.84 in 16 mi South 13.4 mph - -   Mostly Cloudy
3:20 PM 66.2 °F 53.6 °F 64% 29.80 in 6.2 mi South 16.1 mph - N/A   Partly Cloudy
3:50 PM 66.2 °F 53.6 °F 64% 29.80 in 6.2 mi South 15.0 mph - N/A Rain Light Rain Showers
4:00 PM 66 °F 53 °F 54% 29.81 in 19 mi South 15.7 mph - - Rain Light Rain Showers
4:20 PM 55.4 °F 51.8 °F 88% 29.83 in 6.2 mi WSW 11.5 mph - N/A Rain Light Rain Showers
4:50 PM 53.6 °F 51.8 °F 94% 29.80 in 3.7 mi West 13.8 mph - N/A Rain , Thunderstorm Light Thunderstorms and Rain
5:00 PM 54 °F 52 °F 89% 29.82 in 4 mi West 13.4 mph - - Rain , Thunderstorm Thunderstorms and Rain
5:20 PM 55.4 °F 51.8 °F 88% 29.77 in 6.2 mi West 9.2 mph - N/A   Mostly Cloudy
5:50 PM 53.6 °F 51.8 °F 94% 29.77 in 6.2 mi WNW 6.9 mph - N/A   Mostly Cloudy
6:00 PM 54 °F 51 °F 86% 29.78 in 12 mi WNW 6.7 mph - - Thunderstorm Light Thunderstorm
6:20 PM 53.6 °F 51.8 °F 94% 29.77 in 1.6 mi West 16.1 mph - N/A Rain , Thunderstorm Heavy Thunderstorms and Rain
6:50 PM 55.4 °F 51.8 °F 88% 29.77 in 3.7 mi SW 16.1 mph - N/A Rain , Thunderstorm Thunderstorms and Rain
7:00 PM 56 °F 53 °F 84% 29.77 in 4 mi SW 15.7 mph - - Rain , Thunderstorm Thunderstorms and Rain
7:20 PM 57.2 °F 53.6 °F 88% 29.74 in 6.2 mi SSW 10.4 mph - N/A   Partly Cloudy
7:50 PM 57.2 °F 53.6 °F 88% 29.74 in 6.2 mi SSW 9.2 mph - N/A   Partly Cloudy
8:00 PM 57 °F 53 °F 81% 29.76 in 19 mi SSW 8.9 mph - - Thunderstorm Light Thunderstorm
8:20 PM 57.2 °F 51.8 °F 82% 29.74 in 6.2 mi SSW 10.4 mph - N/A   Partly Cloudy
8:50 PM 57.2 °F 51.8 °F 82% 29.74 in 6.2 mi SSW 8.1 mph - N/A   Partly Cloudy
9:00 PM 56 °F 53 °F 85% 29.76 in 19 mi SSW 8.9 mph - -   Partly Cloudy
9:20 PM 55.4 °F 51.8 °F 88% 29.74 in 6.2 mi SW 8.1 mph - N/A   Scattered Clouds
9:50 PM 57.2 °F 51.8 °F 82% 29.74 in 6.2 mi SW 8.1 mph - N/A   Mostly Cloudy
10:00 PM 56 °F 53 °F 84% 29.77 in 19 mi SW 6.7 mph - -   Mostly Cloudy
10:20 PM 55.4 °F 51.8 °F 88% 29.74 in 6.2 mi SSW 5.8 mph - N/A   Mostly Cloudy
10:50 PM 55.4 °F 51.8 °F 88% 29.74 in 2.8 mi South 10.4 mph 26.5 mph N/A Rain Rain Showers
11:00 PM 56 °F 51 °F 79% 29.76 in 3 mi South 11.2 mph - - Rain Heavy Rain Showers
11:20 PM 55.4 °F 51.8 °F 88% 29.74 in 5.6 mi South 6.9 mph - N/A Rain Light Rain Showers
11:50 PM 55.4 °F 51.8 °F 88% 29.74 in 2.8 mi SW 23.0 mph - N/A Rain Rain Showers